Temperature
17 16 16 15 15 14 14 14 14 14 14 13 13 13 13 13 13 13 13 13 13 13 12 12 12 12 10 10 11 10 10 11 11 11 12 12 12 12 12 12 12 11 10
16 15 15 15 14 14 14 14 14 14 14 13 13 13 13 13 13 13 13 13 13 13 12 12 12 12 11 10 11 11 11 11 11 11 11 11 12 12 12 12 12 11 11
15 14 14 14 14 13 13 13 13 13 13 13 13 13 12 13 13 13 13 13 13 13 13 12 12 12 12 11 11 11 11 11 11 11 11 11 11 11 12 12 12 12 11
14 14 13 13 13 13 13 12 12 12 12 12 12 12 12 12 12 12 12 12 12 12 12 12 12 12 12 11 11 11 11 11 11 11 11 11 11 11 11 11 11 11 11
13 13 13 13 13 12 12 12 12 12 12 12 12 12 12 12 12 12 12 12 12 12 12 12 13 12 12 12 11 11 11 11 11 11 11 11 11 10 11 11 11 11 11
13 13 13 13 13 13 13 13 13 12 12 12 12 12 12 12 12 13 13 13 13 13 13 12 13 13 13 13 12 12 11 11 11 11 11 10 10 10 10 10 10 10 10
13 13 13 13 12 12 12 12 12 12 12 12 11 12 13 13 13 13 14 14 14 13 13 13 13 13 13 13 13 13 13 12 12 11 11 11 11 11 10 10 10 10 10
12 12 12 12 11 12 12 12 11 11 11 11 11 10 10 11 12 12 13 13 13 13 12 12 12 13 13 13 13 13 13 13 13 13 12 12 12 11 11 10 10 10 10
12 12 11 11 11 11 11 11 11 10 9 10 10 10 11 11 11 11 12 12 12 12 12 13 12 12 12 12 12 12 13 13 13 13 13 13 12 12 11 11 11 10 10
12 11 11 11 11 11 10 10 10 10 9 9 9 10 10 10 10 10 10 10 11 11 12 12 12 11 11 12 12 12 12 13 13 13 12 13 13 12 11 11 11 11 11
11 11 11 11 10 10 9 9 9 9 9 8 8 8 8 8 8 8 9 9 9 10 10 11 11 11 11 11 12 12 13 13 13 13 12 12 12 12 11 11 11 11 11
11 11 10 10 9 8 8 8 7 7 7 7 7 7 6 6 6 6 7 7 7 8 9 9 9 10 10 11 11 11 11 12 12 12 12 12 11 11 11 11 11 11 11
11 10 9 9 8 7 7 7 6 6 6 6 5 5 5 5 5 5 5 5 6 7 7 8 8 9 9 9 10 10 10 11 11 11 11 11 11 11 11 12 11 11 11
9 8 8 7 7 6 6 5 5 5 4 4 4 3 3 4 4 4 4 5 5 6 6 7 7 8 8 9 9 9 9 10 10 10 11 11 10 10 10 11 11 11 11
7 7 7 6 6 6 5 5 4 4 3 2 2 2 2 3 3 3 3 4 4 5 5 6 6 7 7 7 8 8 8 8 8 9 9 10 10 10 9 10 10 10 10
7 6 6 6 5 5 5 4 4 3 2 1 1 1 2 2 2 2 2 2 2 2 3 4 4 4 5 5 6 6 7 7 7 8 9 9 9 9 10 9 9 10 10
6 6 6 5 5 5 4 3 3 2 1 0 -0 -0 0 0 1 0 1 0 1 1 1 2 3 3 4 4 4 5 5 6 6 7 8 8 8 8 8 9 9 9 9
5 5 5 5 4 4 3 3 2 1 -0 -1 -2 -2 -2 -1 -1 -1 -1 -1 -1 -1 -0 -0 0 1 2 2 3 3 4 4 5 6 6 7 7 7 8 8 8 9 8
4 4 4 4 3 3 3 2 1 0 -1 -2 -3 -3 -3 -3 -3 -3 -3 -3 -3 -2 -2 -2 -1 -1 0 1 1 2 3 3 4 4 5 5 6 7 8 8 8 8 7
4 4 3 3 2 2 2 1 0 -0 -2 -3 -3 -3 -3 -4 -4 -4 -4 -4 -3 -3 -3 -3 -3 -2 -2 -1 -1 -0 1 1 2 2 3 4 5 6 7 8 7 7 7
3 2 2 2 1 1 0 -1 -2 -2 -3 -4 -4 -4 -4 -5 -5 -5 -5 -5 -4 -4 -4 -4 -4 -3 -3 -3 -2 -1 -1 0 1 1 1 3 4 5 5 6 6 7 7
2 2 1 1 0 -0 -1 -2 -3 -5 -5 -5 -5 -5 -5 -5 -6 -6 -5 -5 -5 -5 -4 -4 -4 -4 -4 -4 -3 -2 -1 -1 0 0 1 1 2 3 4 5 6 6 6
1 0 -0 -1 -1 -2 -2 -3 -5 -6 -6 -6 -6 -6 -6 -6 -6 -6 -6 -6 -5 -5 -5 -5 -5 -5 -4 -4 -3 -2 -2 -1 -2 -1 -0 0 1 1 2 3 5 5 5
-1 -1 -2 -2 -2 -2 -3 -4 -7 -7 -7 -7 -6 -6 -6 -6 -6 -6 -6 -6 -6 -5 -5 -5 -5 -4 -4 -4 -4 -3 -3 -3 -3 -1 -0 0 1 1 2 2 4 5 5
-2 -2 -3 -3 -3 -3 -4 -6 -7 -7 -7 -7 -7 -7 -6 -7 -7 -6 -6 -6 -6 -6 -6 -6 -6 -5 -5 -5 -5 -4 -4 -4 -3 -3 -2 -1 0 1 1 2 3 4 4
-3 -3 -3 -4 -4 -5 -6 -8 -7 -7 -7 -7 -7 -7 -7 -7 -6 -6 -7 -7 -7 -7 -7 -7 -6 -6 -6 -5 -6 -5 -5 -5 -5 -5 -3 -2 -1 -0 0 1 1 2 2
Wind_Speed
6 4 3 6 8 10 7 5 6 8 10 8 10 10 9 11 14 14 15 20 24 27 28 29 31 31 32 32 32 31 31 30 30 30 30 30 30 30 30 30 30 30 29
5 6 6 6 5 9 9 7 9 10 10 9 11 12 12 11 14 14 15 17 23 26 27 29 31 33 34 35 34 33 33 33 33 32 32 32 32 32 32 33 32 32 32
8 5 7 8 8 10 10 7 7 7 10 10 13 13 12 13 13 13 15 15 17 22 27 30 31 33 34 35 36 34 34 34 35 35 35 35 35 35 35 35 34 33 34
13 6 8 10 6 7 5 8 8 8 10 11 12 12 12 12 14 13 12 13 14 14 20 27 30 32 33 35 38 37 36 34 34 36 37 37 38 38 38 38 37 36 36
12 7 9 9 6 6 7 7 8 8 11 12 12 13 11 12 14 14 14 14 14 15 15 20 26 28 31 34 37 39 38 36 35 35 35 37 39 40 40 40 39 39 38
9 7 8 9 7 6 7 7 9 9 11 13 13 14 14 14 13 13 15 14 14 14 14 14 15 16 25 31 35 38 37 37 36 36 35 36 37 39 41 41 41 40 39
6 4 5 6 6 6 8 9 7 9 10 8 8 10 12 13 13 13 13 13 14 14 13 15 12 11 12 24 30 34 35 36 36 36 36 37 38 38 40 41 41 41 40
10 8 8 7 7 6 8 8 7 8 9 7 6 8 7 7 10 11 11 11 12 11 11 14 13 13 12 9 15 26 29 33 35 35 36 38 39 40 40 40 40 39 39
11 10 9 9 9 8 8 8 8 9 10 10 7 7 7 9 9 7 8 9 11 11 11 12 13 14 14 12 12 15 23 29 33 34 35 36 37 38 40 41 41 40 38
11 12 9 9 9 7 8 8 8 7 9 9 9 7 10 11 10 10 6 7 9 10 11 11 12 13 14 13 15 18 22 26 31 33 34 35 35 36 37 38 39 39 38
8 10 10 8 9 8 8 8 9 8 6 7 7 9 10 9 9 10 13 11 9 8 10 11 12 13 15 15 14 18 25 29 31 31 32 33 34 35 36 35 36 37 37
7 9 9 9 9 9 9 9 9 9 8 8 8 8 8 8 10 10 13 15 14 11 10 10 10 11 13 13 15 19 23 26 29 30 32 34 33 33 34 34 34 34 35
8 11 11 11 10 11 10 10 9 9 9 9 9 8 8 8 9 10 13 15 15 13 11 10 10 11 10 11 13 17 18 21 24 29 32 33 32 30 29 32 34 34 32
7 9 10 10 11 11 11 11 9 9 10 10 10 8 8 9 9 10 11 13 16 14 13 13 9 9 8 8 9 16 14 18 22 28 32 31 29 28 28 28 31 32 30
8 9 8 9 10 11 12 12 10 12 12 11 9 10 10 9 10 9 10 10 12 14 15 17 10 11 7 8 11 10 9 14 21 25 28 28 26 26 26 26 28 28 29
8 8 9 10 10 11 13 13 11 13 13 11 12 13 13 12 11 9 8 9 9 11 14 17 14 13 11 11 14 13 13 17 20 25 27 26 26 28 28 27 25 24 25
8 9 10 11 11 12 13 13 13 13 15 14 13 14 16 15 11 9 8 8 9 10 12 15 13 15 18 16 14 12 12 12 14 22 24 26 24 24 25 25 25 24 24
8 9 10 10 11 12 13 13 14 14 14 14 15 14 15 14 11 8 9 11 10 9 9 14 16 13 14 16 17 16 13 11 13 18 23 24 22 21 22 23 24 24 25
9 10 10 11 12 13 14 13 13 15 14 13 13 13 15 15 12 10 12 12 10 8 9 11 15 13 12 12 14 13 14 13 13 14 18 17 21 23 21 20 20 21 22
9 10 11 11 12 14 14 14 16 16 15 13 12 13 13 14 14 15 13 13 11 11 12 11 12 12 12 12 11 13 14 12 12 10 11 13 16 18 19 19 19 20 20
10 11 12 13 13 12 14 18 18 17 16 16 14 13 13 18 24 20 17 16 14 13 14 14 14 14 13 13 14 13 16 14 11 8 9 11 10 8 9 13 15 18 20
10 11 11 13 13 13 22 27 23 17 16 16 15 14 15 17 20 26 28 29 27 22 19 17 16 16 18 17 16 14 14 14 14 6 6 8 7 8 9 9 15 20 23
11 11 12 13 14 15 24 27 29 18 15 15 15 15 16 15 19 15 22 28 26 30 29 22 19 20 19 19 17 16 15 16 18 13 12 14 10 11 11 13 21 24 24
10 11 12 13 14 16 24 27 28 17 14 15 15 15 15 15 16 21 19 18 17 19 23 20 18 18 18 17 16 17 18 18 17 13 12 13 10 8 6 8 17 24 23
11 11 12 13 14 16 24 26 25 14 14 16 15 14 16 16 25 33 24 21 20 18 22 29 31 28 28 29 24 15 13 14 14 13 11 9 9 4 3 4 8 13 13
11 13 14 12 14 15 21 26 26 13 14 14 13 13 20 23 31 33 25 20 19 20 19 20 20 20 19 21 23 16 12 12 13 10 5 4 2 1 2 2 5 4 11
Wind_Direction
242 228 226 240 242 243 239 239 243 250 254 254 256 251 251 250 253 253 257 258 260 262 263 263 261 259 258 256 250 245 245 245 244 243 242 241 241 241 240 239 239 239 239
241 244 250 246 238 239 241 240 245 250 255 253 256 249 248 248 249 247 250 253 254 257 258 259 258 256 256 257 255 248 242 240 241 241 242 242 241 241 241 241 239 240 241
239 239 251 254 251 242 241 245 250 249 259 256 258 256 252 249 250 247 246 248 249 250 252 255 255 255 254 255 257 257 252 246 243 242 240 239 238 238 238 239 239 239 239
240 237 253 261 257 244 236 247 251 254 259 258 260 259 254 253 252 249 247 248 247 246 247 252 253 253 252 252 254 254 254 252 248 244 242 242 242 240 239 238 238 237 238
247 240 256 266 266 251 244 248 254 251 269 270 265 265 258 251 252 250 247 243 241 240 240 244 244 244 247 249 252 254 253 252 251 249 246 244 242 241 241 241 240 239 238
259 244 256 267 270 265 264 253 259 263 266 275 279 277 267 257 251 248 249 247 244 241 239 243 247 245 244 247 251 253 253 251 250 250 249 249 247 244 243 242 242 241 241
311 277 279 285 288 281 286 287 276 274 279 273 278 279 267 256 250 248 246 245 245 242 236 239 241 242 243 243 245 250 253 254 254 253 251 250 248 247 245 244 244 244 243
30 27 12 355 339 324 316 310 300 293 288 280 267 289 286 274 247 243 246 246 248 249 244 244 246 245 244 247 247 248 249 252 255 254 252 250 248 246 245 244 243 243 243
33 28 22 16 9 5 352 342 328 310 304 298 274 273 288 294 301 263 235 237 243 245 244 245 246 245 246 247 251 252 249 250 254 256 255 253 251 248 246 244 244 243 243
23 22 13 7 1 356 352 344 341 331 326 322 318 287 278 292 299 304 281 268 252 250 249 248 248 246 245 247 246 244 247 247 252 257 258 256 253 250 248 246 246 245 245
14 16 8 0 356 350 338 332 331 330 324 320 317 317 315 307 300 302 306 307 298 277 263 254 251 248 246 246 246 246 245 247 252 257 260 258 254 251 248 245 244 244 245
6 8 1 356 349 344 337 332 326 321 318 314 313 313 312 313 312 310 307 307 302 295 286 278 267 257 250 250 250 249 246 245 249 254 257 258 257 254 250 246 244 242 242
2 360 357 352 348 341 336 332 324 314 312 308 307 307 307 306 306 305 304 302 299 300 292 278 269 261 251 242 247 253 256 256 255 257 260 265 264 259 254 251 249 246 243
348 349 346 344 342 339 337 335 328 320 318 311 306 306 309 308 303 298 295 296 300 299 297 293 288 279 275 273 261 248 254 258 256 256 259 259 259 260 262 260 254 251 247
349 343 337 338 339 341 339 335 331 330 326 321 319 319 312 308 303 295 290 295 300 304 304 300 301 294 290 292 287 283 273 264 263 263 261 257 254 249 255 263 261 254 249
340 337 340 341 341 341 340 337 333 331 329 333 332 326 312 305 302 294 299 302 303 300 296 297 305 307 303 292 282 279 276 275 268 266 267 264 254 252 252 251 252 257 256
331 336 340 339 340 339 338 335 332 333 332 329 325 317 311 307 307 314 309 312 307 302 301 304 312 313 308 308 308 302 293 287 281 272 267 267 261 258 258 255 252 249 247
332 336 338 337 336 334 331 328 325 331 325 326 324 321 321 322 318 316 316 308 300 300 302 301 303 304 304 311 306 300 297 292 286 278 273 273 274 268 259 256 252 250 245
334 335 337 335 333 330 328 324 326 327 324 324 325 327 323 318 315 316 310 302 298 299 297 291 292 298 302 304 303 305 303 295 284 283 278 274 275 273 268 263 258 253 244
328 332 335 332 330 328 326 330 330 328 327 322 321 317 314 316 315 314 310 307 305 305 299 293 295 299 297 297 299 299 296 293 289 286 287 287 278 272 274 273 265 258 242
333 331 329 328 327 325 327 330 328 325 323 321 319 315 313 312 314 315 315 311 310 306 304 302 301 300 299 300 294 290 285 285 279 285 288 283 273 274 273 272 269 266 256
329 328 322 322 323 323 325 328 327 322 320 317 314 311 308 305 309 315 313 313 312 309 305 301 300 298 295 291 286 287 294 294 294 277 269 285 288 282 279 272 269 264 262
327 321 320 319 315 316 321 326 326 325 316 311 307 305 304 308 309 300 305 310 309 306 303 299 292 286 286 284 290 294 294 296 292 289 286 280 270 268 272 272 271 269 265
316 315 315 311 308 312 321 325 326 323 311 305 301 300 302 305 303 309 315 316 309 302 302 300 295 286 281 291 299 300 301 294 285 280 267 270 271 262 270 274 274 273 261
315 313 310 306 306 311 320 324 322 316 309 305 303 304 306 304 309 319 326 317 313 311 311 310 308 310 311 310 307 301 297 295 296 298 292 276 273 259 261 285 291 267 186
308 307 304 303 304 307 312 321 323 318 310 308 306 305 306 310 317 325 327 322 319 313 312 312 310 308 306 301 300 293 283 287 296 296 292 289 266 199 274 324 338 13 122
Height
1498 1497 1497 1497 1496 1495 1494 1492 1491 1489 1487 1486 1484 1483 1481 1479 1477 1475 1472 1471 1471 1470 1470 1469 1469 1469 1470 1470 1470 1470 1469 1469 1468 1468 1468 1469 1470 1471 1471 1470 1471 1472 1473
1496 1496 1495 1494 1492 1491 1490 1488 1486 1484 1482 1480 1478 1477 1475 1473 1471 1469 1466 1465 1464 1464 1462 1461 1460 1460 1460 1461 1462 1462 1461 1460 1461 1461 1461 1461 1462 1463 1463 1463 1463 1464 1465
1494 1493 1491 1490 1488 1487 1485 1483 1481 1479 1476 1473 1471 1469 1467 1466 1464 1461 1459 1457 1455 1454 1453 1453 1451 1450 1450 1450 1452 1453 1453 1453 1452 1452 1452 1453 1453 1453 1453 1454 1454 1455 1455
1491 1489 1487 1485 1483 1481 1479 1477 1475 1472 1469 1466 1463 1460 1458 1456 1454 1452 1450 1448 1446 1444 1443 1443 1442 1441 1440 1440 1441 1441 1441 1442 1442 1442 1442 1442 1443 1443 1443 1443 1444 1444 1445
1486 1484 1482 1481 1479 1476 1473 1471 1468 1466 1462 1459 1455 1451 1448 1446 1444 1442 1439 1438 1436 1433 1431 1430 1430 1429 1429 1428 1428 1428 1427 1428 1429 1430 1430 1431 1431 1431 1431 1432 1433 1434 1434
1482 1480 1478 1477 1474 1471 1469 1466 1463 1460 1457 1453 1448 1444 1441 1439 1436 1433 1431 1429 1426 1423 1421 1420 1419 1416 1416 1416 1415 1414 1414 1414 1414 1415 1417 1418 1419 1419 1419 1419 1420 1421 1422
1479 1478 1475 1473 1471 1468 1465 1462 1458 1454 1450 1448 1442 1436 1433 1432 1429 1426 1423 1420 1417 1415 1413 1412 1410 1408 1406 1405 1404 1402 1401 1401 1401 1401 1402 1402 1402 1403 1405 1407 1407 1408 1409
1477 1475 1473 1470 1468 1465 1461 1458 1454 1449 1446 1444 1439 1432 1424 1421 1420 1418 1415 1411 1409 1408 1406 1404 1402 1400 1399 1397 1394 1393 1392 1392 1389 1388 1386 1385 1385 1387 1389 1391 1393 1393 1395
1477 1475 1473 1470 1466 1463 1459 1455 1452 1447 1442 1440 1437 1433 1423 1414 1412 1410 1406 1404 1401 1399 1397 1395 1393 1391 1390 1387 1385 1383 1381 1380 1380 1378 1375 1373 1372 1372 1373 1375 1377 1379 1381
1476 1474 1471 1468 1464 1461 1457 1453 1449 1445 1440 1435 1432 1429 1424 1417 1410 1400 1398 1398 1395 1391 1388 1386 1385 1382 1379 1376 1373 1371 1369 1367 1366 1366 1365 1363 1360 1360 1360 1361 1364 1365 1367
1474 1472 1469 1465 1461 1458 1454 1450 1446 1442 1437 1432 1428 1424 1419 1413 1409 1403 1392 1388 1386 1385 1382 1378 1374 1371 1368 1365 1361 1358 1357 1355 1353 1353 1352 1352 1350 1348 1347 1348 1350 1352 1354
1471 1468 1464 1460 1457 1453 1449 1445 1441 1438 1434 1429 1424 1419 1414 1409 1404 1400 1392 1384 1378 1374 1372 1369 1367 1362 1358 1354 1351 1348 1346 1343 1341 1340 1341 1341 1340 1338 1336 1336 1337 1339 1341
1468 1464 1460 1456 1452 1448 1444 1439 1435 1432 1428 1423 1419 1414 1409 1405 1401 1396 1389 1381 1374 1367 1363 1358 1357 1355 1351 1347 1342 1340 1336 1333 1329 1328 1329 1330 1330 1328 1326 1325 1326 1328 1328
1465 1461 1457 1453 1448 1444 1439 1434 1430 1426 1422 1418 1413 1408 1403 1399 1395 1390 1384 1377 1368 1360 1356 1351 1349 1347 1344 1341 1336 1332 1328 1324 1320 1318 1317 1317 1316 1315 1315 1314 1314 1315 1317
1462 1458 1454 1449 1445 1440 1436 1430 1425 1421 1416 1411 1407 1402 1398 1393 1388 1383 1378 1374 1369 1358 1348 1341 1340 1336 1334 1331 1327 1323 1319 1315 1312 1309 1306 1303 1302 1302 1302 1300 1301 1302 1304
1459 1454 1450 1446 1441 1437 1432 1427 1421 1416 1411 1406 1401 1397 1392 1386 1381 1376 1373 1369 1365 1358 1348 1337 1332 1328 1323 1320 1317 1312 1308 1304 1301 1299 1297 1294 1292 1290 1287 1287 1286 1287 1289
1455 1450 1446 1442 1438 1433 1428 1422 1416 1411 1406 1400 1396 1391 1385 1381 1376 1372 1368 1363 1357 1352 1344 1333 1328 1322 1317 1312 1308 1305 1301 1295 1291 1288 1286 1286 1283 1279 1275 1273 1274 1274 1275
1451 1447 1443 1438 1434 1429 1423 1417 1411 1406 1400 1394 1388 1385 1380 1376 1371 1367 1361 1355 1350 1345 1339 1328 1318 1313 1308 1305 1299 1294 1290 1285 1281 1278 1276 1274 1272 1269 1265 1262 1261 1260 1262
1447 1444 1439 1433 1428 1424 1419 1413 1407 1401 1394 1388 1383 1379 1374 1370 1365 1360 1355 1349 1344 1337 1331 1323 1311 1304 1298 1296 1290 1285 1280 1275 1271 1268 1265 1263 1261 1258 1256 1254 1253 1250 1250
1443 1439 1434 1430 1425 1420 1414 1408 1401 1394 1388 1383 1378 1373 1369 1364 1358 1353 1348 1343 1337 1329 1321 1314 1305 1297 1291 1286 1281 1274 1266 1263 1260 1257 1255 1251 1249 1247 1245 1243 1242 1240 1238
1439 1435 1430 1425 1420 1415 1409 1402 1395 1389 1384 1377 1372 1367 1361 1357 1352 1348 1343 1336 1329 1321 1314 1306 1298 1291 1285 1279 1272 1266 1258 1252 1248 1248 1243 1239 1237 1235 1232 1232 1230 1230 1228
1435 1430 1425 1420 1414 1409 1403 1396 1391 1385 1378 1371 1364 1358 1353 1349 1345 1340 1335 1329 1323 1316 1307 1299 1291 1284 1278 1272 1264 1257 1250 1245 1237 1238 1234 1229 1229 1225 1224 1223 1219 1217 1216
1430 1425 1420 1415 1408 1402 1395 1389 1385 1378 1371 1364 1358 1351 1346 1341 1337 1331 1324 1319 1312 1305 1300 1292 1281 1274 1268 1262 1256 1248 1242 1236 1228 1225 1226 1216 1217 1214 1215 1211 1208 1206 1203
1425 1419 1414 1408 1401 1394 1388 1383 1377 1370 1363 1357 1352 1346 1340 1334 1328 1324 1316 1307 1299 1292 1286 1279 1272 1265 1259 1254 1249 1243 1235 1227 1219 1215 1213 1205 1204 1202 1201 1199 1196 1194 1192
1419 1414 1407 1401 1394 1387 1382 1376 1371 1364 1356 1350 1345 1340 1335 1328 1323 1317 1309 1299 1289 1281 1275 1270 1264 1257 1251 1244 1240 1234 1226 1219 1210 1203 1201 1198 1193 1191 1189 1188 1186 1184 1183
1414 1408 1401 1395 1389 1382 1376 1371 1367 1360 1351 1344 1338 1333 1328 1323 1316 1310 1303 1294 1283 1274 1266 1258 1252 1247 1241 1234 1230 1225 1220 1213 1205 1198 1192 1191 1186 1185 1182 1180 1180 1180 1180